Temperature
6 7 7 8 9 10 10 11 11 12 13 13 13 14 15 15 15 16 16 16 16 16 16 16 16 16 16 16 16 16 15 15 15 15 15 14 14 14 14 14 14 14 14 14
7 7 7 8 8 9 9 10 11 11 12 12 13 14 15 15 15 15 16 16 16 16 15 16 16 16 16 16 16 16 16 15 15 15 15 15 15 15 14 14 14 14 14 14
6 7 7 7 8 8 9 10 10 10 11 12 12 13 14 15 14 14 15 15 15 15 15 15 15 16 16 16 16 16 16 15 15 15 15 15 15 15 14 14 14 14 14 14
6 7 7 8 8 8 9 9 10 10 11 11 12 13 15 15 15 15 15 15 15 15 15 15 15 15 16 16 16 16 16 15 15 15 15 15 15 15 15 15 14 14 14 14
6 7 7 7 8 8 8 9 9 10 11 11 11 12 15 14 14 15 16 16 15 15 14 14 15 15 15 16 16 16 16 16 16 15 15 15 15 15 15 14 14 14 14 14
6 7 7 7 8 8 8 8 9 9 10 10 12 12 14 15 15 16 16 16 15 14 14 14 14 15 15 15 16 16 16 16 15 15 15 15 15 15 14 14 14 14 14 14
6 6 7 7 7 7 8 8 8 8 9 11 12 12 13 15 15 15 15 15 14 13 13 14 14 14 15 15 15 15 15 15 15 15 15 15 14 14 14 14 14 13 13 13
6 6 7 7 8 7 8 8 9 10 10 11 10 11 14 14 13 12 12 12 12 12 12 13 13 14 14 15 15 15 14 14 14 14 14 14 14 14 13 13 13 13 13 13
7 7 7 7 7 8 7 8 9 9 9 10 11 12 13 13 13 12 12 11 11 11 11 12 12 13 13 14 14 14 14 14 14 14 14 13 13 13 13 12 12 12 12 12
7 6 6 7 7 7 8 8 8 8 9 10 11 12 13 13 14 13 13 12 11 10 10 10 11 12 12 12 13 12 12 13 13 13 13 12 12 12 12 12 11 11 11 11
6 6 6 6 6 7 7 7 8 9 9 10 11 13 13 13 13 13 13 11 10 9 9 9 10 10 11 11 11 11 11 12 12 12 11 11 11 11 11 11 10 10 10 10
7 7 7 7 7 8 8 8 9 8 8 9 11 13 12 12 11 11 11 10 9 9 9 8 9 9 10 10 10 10 11 11 10 10 10 10 10 10 10 10 9 9 9 9
7 6 6 7 6 6 7 8 8 9 9 9 10 12 12 11 11 10 10 9 9 8 8 8 8 9 9 9 9 10 10 10 9 9 9 9 9 9 9 9 8 8 8 8
7 6 7 8 8 7 7 7 8 7 8 9 10 11 12 12 11 11 10 9 9 8 8 8 8 8 9 9 9 9 9 9 9 9 8 8 8 8 8 8 7 7 7 7
6 6 7 7 8 7 7 8 7 7 8 9 10 10 11 12 12 11 10 9 8 8 8 8 8 8 9 9 9 9 8 8 8 8 8 7 7 7 7 6 6 6 6 5
6 6 6 7 7 7 7 8 8 8 8 9 9 10 11 11 10 10 9 9 9 8 8 9 9 9 9 9 9 9 8 8 8 7 7 6 6 6 6 5 5 5 5 5
5 6 6 7 7 7 7 8 8 8 8 9 9 10 11 10 10 10 9 9 9 9 9 9 9 9 9 9 9 8 8 7 7 7 6 6 5 5 5 4 4 4 4 4
5 5 6 7 7 6 9 8 8 8 9 9 9 10 10 10 9 9 9 9 9 9 9 9 9 9 9 9 8 8 8 7 7 6 6 5 5 4 4 3 3 3 3 2
5 5 6 7 7 8 9 8 8 8 8 9 9 9 9 8 8 9 8 8 9 9 9 9 9 9 9 9 8 8 7 7 6 6 5 4 4 3 3 3 2 2 2 2
5 5 6 6 7 7 9 8 7 8 8 9 8 8 8 8 9 10 8 8 9 9 9 9 9 9 9 9 8 8 7 7 6 5 5 4 3 3 2 2 2 1 1 1
5 5 5 6 6 8 8 7 7 8 9 8 7 7 7 8 8 8 7 8 8 8 9 9 9 9 9 8 8 7 7 7 6 5 4 3 3 2 2 1 1 1 0 0
5 6 6 6 6 7 7 7 7 8 7 7 7 7 6 6 6 7 7 7 7 8 8 8 8 8 8 8 7 7 7 6 5 4 3 3 2 2 1 1 0 0 -0 -0
5 5 5 6 7 6 5 6 5 5 6 6 6 6 6 6 6 6 7 7 7 7 7 7 7 7 7 7 7 6 6 5 4 3 3 2 1 1 1 0 0 -0 -0 -0
4 4 4 5 6 6 5 5 5 5 5 5 6 6 6 6 6 6 6 6 6 6 6 6 6 6 6 6 6 5 4 4 3 3 2 2 1 1 0 0 -0 -0 -0 -1
3 3 4 4 5 5 5 5 4 5 5 5 5 5 6 6 6 6 6 6 6 6 6 6 6 5 5 5 5 4 4 3 3 2 2 1 0 0 -0 -0 -0 -1 -1 -1
3 3 3 4 4 4 4 4 4 4 4 4 5 5 5 5 5 5 5 5 5 5 5 5 5 5 4 4 4 4 3 3 2 2 1 1 0 -0 -0 -1 -1 -1 -1 -1
Wind_Speed
3 4 7 10 10 6 8 11 12 12 9 13 17 17 14 10 11 14 14 14 14 13 10 7 7 8 9 10 11 12 12 12 10 8 8 8 8 7 7 7 9 10 10 11
4 5 5 4 5 6 8 10 10 7 7 10 14 17 15 15 14 14 15 15 15 13 11 8 7 7 9 10 11 11 11 11 11 9 8 6 6 6 7 6 8 9 9 10
3 2 4 6 6 7 9 10 11 8 7 7 8 13 17 17 17 16 15 15 15 14 13 11 9 8 8 9 10 9 10 10 10 10 7 5 4 4 5 7 6 7 8 9
2 2 5 7 7 7 7 6 8 9 9 7 10 9 15 17 19 19 19 17 17 15 13 11 10 9 9 8 7 8 8 9 9 9 9 10 8 8 7 6 5 5 6 7
2 3 6 7 6 7 3 4 6 7 8 6 9 9 9 11 17 21 21 20 18 16 14 13 11 9 8 7 7 7 7 7 7 8 9 10 9 7 5 5 5 5 4 4
2 2 3 4 4 5 5 5 4 3 5 8 12 11 9 10 15 16 18 19 18 16 15 13 11 8 7 7 7 7 7 7 6 7 8 8 8 7 7 6 5 5 4 3
2 3 3 3 6 6 7 7 5 6 7 8 7 10 10 8 9 12 13 14 15 14 14 13 13 11 9 9 8 7 8 7 7 6 6 6 6 6 7 6 5 5 4 3
4 4 6 6 6 7 9 7 5 5 7 5 7 10 8 5 6 8 10 10 11 12 12 13 13 12 10 10 9 9 8 7 7 6 5 5 4 4 3 4 3 3 3 2
4 3 4 5 4 6 7 7 2 1 1 3 6 6 8 6 7 7 7 8 9 10 11 11 11 11 11 10 9 9 8 7 7 6 5 5 4 4 4 3 3 2 2 1
2 3 4 4 4 3 4 5 4 4 4 5 6 7 6 6 6 5 5 6 6 7 8 9 10 10 10 9 8 8 8 7 6 6 5 4 4 3 3 3 3 2 2 2
3 3 5 6 8 10 7 6 5 5 4 4 4 4 1 2 3 4 3 3 4 6 8 8 9 9 9 9 9 8 8 7 6 6 5 5 4 4 3 3 2 2 1 1
5 3 4 5 2 6 9 9 9 6 5 4 4 3 3 1 2 3 2 1 3 5 7 8 9 9 9 9 9 8 8 7 6 6 5 5 4 4 3 3 3 2 2 2
5 4 3 4 4 5 7 9 11 7 4 6 6 4 2 1 2 1 2 1 3 5 7 8 9 10 10 9 9 8 8 7 6 6 6 5 4 4 4 3 3 3 3 3
4 4 6 5 2 6 7 11 13 10 7 8 11 10 6 5 4 3 2 3 4 6 7 9 9 10 9 9 9 8 8 7 7 6 6 5 4 4 4 4 4 3 3 3
3 5 6 7 5 5 8 11 15 16 14 11 11 13 14 11 10 8 6 5 5 7 9 10 10 10 10 9 9 8 8 8 7 7 6 5 5 5 4 4 4 4 4 4
3 4 4 5 5 7 9 12 15 17 16 18 16 17 14 12 10 10 10 9 9 10 11 11 11 11 11 11 10 10 9 8 8 7 6 6 6 5 5 5 5 4 4 4
3 4 4 4 3 4 8 11 15 13 13 13 16 15 11 11 11 11 10 10 11 11 11 12 12 12 12 12 11 11 10 9 9 8 7 7 7 6 6 5 5 5 5 5
6 5 3 3 3 6 3 1 7 12 14 14 14 13 12 12 11 11 10 11 11 10 10 11 11 11 11 10 10 10 10 10 9 9 8 8 7 7 6 6 6 5 5 5
9 6 4 3 4 6 4 2 4 6 6 8 12 14 12 9 8 8 8 9 10 9 8 8 9 9 9 10 11 11 11 10 10 9 9 9 8 8 7 7 6 5 5 5
5 6 5 4 4 4 1 1 1 3 4 2 5 7 6 4 5 3 3 3 4 4 4 5 6 7 9 10 11 12 11 11 11 10 9 9 9 8 8 7 7 5 5 5
2 4 6 6 5 4 3 1 3 3 1 3 3 4 4 4 4 4 4 3 1 0 1 3 6 6 7 9 11 11 11 11 10 9 9 9 9 8 8 7 6 7 6 6
3 3 3 4 5 3 3 2 2 3 4 4 4 4 3 3 3 3 2 2 2 2 2 3 4 4 5 8 10 10 9 8 8 9 9 9 9 8 7 8 7 7 7 7
3 3 3 4 3 3 2 2 4 5 5 6 5 4 3 2 1 1 1 2 2 2 2 2 3 4 5 7 8 8 7 8 9 9 9 9 9 8 8 9 9 8 7 6
4 3 4 5 5 6 6 4 5 5 6 6 5 5 3 2 1 0 1 1 2 2 2 2 3 3 4 5 6 6 6 9 9 10 9 9 9 8 8 7 7 8 8 7
6 4 4 6 7 7 4 6 7 7 6 5 4 4 3 1 0 0 1 1 1 1 1 1 2 3 3 4 6 6 7 9 9 9 9 8 8 8 8 8 8 9 8 8
3 3 4 4 6 7 9 9 9 8 6 5 3 3 3 1 1 1 1 1 0 0 0 1 2 2 3 4 5 6 8 9 9 8 9 8 7 7 7 7 6 9 9 11
Wind_Direction
158 188 195 199 209 220 192 194 199 205 195 208 221 228 227 222 225 226 226 226 221 222 215 206 207 202 201 202 204 205 202 202 200 197 198 200 205 205 207 210 212 211 213 212
161 201 199 189 196 197 194 198 197 190 194 213 225 234 234 231 233 231 229 227 223 221 214 208 205 200 201 200 201 200 201 201 200 203 200 202 202 205 207 205 210 212 213 212
176 163 171 176 179 188 196 203 200 189 182 212 227 238 232 230 232 235 235 234 229 223 220 212 204 199 200 200 201 198 198 201 203 202 196 183 184 192 200 205 207 210 212 213
169 189 186 182 189 194 200 209 203 187 187 206 211 236 225 222 225 228 229 228 228 222 220 216 210 201 197 200 197 196 194 196 199 199 200 200 205 210 211 206 200 201 207 212
175 178 182 193 197 196 187 178 194 198 207 220 210 235 237 210 225 227 226 226 227 224 220 217 213 204 192 187 188 186 184 185 190 198 202 208 214 214 202 195 196 199 198 208
208 215 209 202 188 180 145 141 141 179 205 232 218 223 246 216 224 225 225 225 225 225 223 218 212 196 186 177 176 173 173 173 178 187 194 201 205 201 196 198 201 203 202 203
190 200 200 194 163 165 177 169 170 185 205 227 194 219 246 240 230 231 230 228 226 224 223 217 208 198 189 181 173 169 169 168 169 173 181 188 194 197 205 205 206 207 208 210
184 192 191 195 194 182 192 205 217 204 202 198 190 227 242 252 248 247 247 245 237 228 221 215 208 200 190 181 174 170 169 167 166 166 167 168 173 182 193 200 200 204 211 215
199 184 162 193 197 181 181 210 243 303 180 219 214 239 262 244 240 238 238 239 234 226 219 212 202 195 187 180 176 171 167 161 159 161 160 158 162 169 173 176 180 187 192 200
216 184 176 166 174 215 225 180 179 201 208 224 220 231 228 197 216 225 230 230 226 215 208 201 191 182 177 171 166 165 162 155 151 151 149 144 151 156 162 168 169 167 164 172
208 193 167 177 201 194 182 189 199 204 240 241 227 215 178 234 245 247 247 236 219 203 193 185 177 170 165 161 160 159 156 150 148 147 142 140 136 133 139 144 145 146 144 147
199 209 196 205 209 218 213 209 196 202 211 228 251 251 103 272 293 275 267 243 207 190 182 176 169 166 164 163 162 159 158 155 150 145 142 137 132 134 136 131 127 125 126 120
181 197 183 183 200 198 218 218 214 222 224 220 229 239 119 266 290 263 236 208 183 177 175 174 172 173 173 171 168 165 162 158 153 150 147 144 143 143 139 133 128 123 121 115
195 220 232 233 219 186 205 210 209 209 221 230 235 252 260 268 274 273 264 230 201 192 187 184 183 183 180 178 175 170 167 162 158 156 156 154 152 148 142 136 132 126 123 120
225 236 240 257 253 215 222 217 210 216 226 238 249 254 264 272 279 278 272 253 226 213 204 198 195 190 185 182 180 176 171 167 164 163 162 159 152 147 145 141 136 131 126 121
248 248 246 253 243 229 237 232 224 227 234 243 256 264 268 275 273 266 258 249 238 226 217 210 204 199 195 192 187 181 178 173 170 171 169 160 157 155 153 150 146 141 135 130
248 238 233 248 246 237 248 232 224 225 227 233 244 255 270 271 265 260 256 248 241 235 224 214 210 206 203 198 191 187 181 172 174 176 171 168 166 163 161 158 156 152 147 140
240 240 238 251 226 239 273 222 224 231 242 239 250 265 273 276 280 278 265 254 246 239 229 219 212 208 203 195 189 183 174 174 176 177 176 175 173 170 167 167 165 159 151 147
224 235 240 233 242 262 276 237 204 220 254 246 250 263 274 286 285 273 258 249 247 244 233 220 209 202 192 186 180 174 175 178 181 184 183 181 178 175 174 175 169 161 155 149
207 229 239 234 241 249 297 13 198 214 257 282 256 271 281 271 261 298 356 289 248 237 221 205 189 180 181 179 173 175 180 184 191 190 185 181 181 181 182 179 170 163 159 155
238 225 231 241 249 267 312 299 177 223 331 347 290 285 278 251 273 327 345 350 348 175 167 166 166 172 177 170 173 182 186 194 191 181 178 179 183 185 181 175 170 163 160 159
265 255 236 238 240 259 23 134 206 319 340 325 313 310 289 274 292 316 348 22 56 85 107 142 156 159 162 170 177 186 194 187 173 172 176 180 182 180 175 172 169 169 167 169
276 293 292 264 275 346 343 300 323 326 312 315 314 317 305 284 287 319 43 56 68 83 101 124 148 151 161 177 186 191 186 169 170 174 179 180 181 181 179 178 175 174 178 183
290 293 275 280 286 308 309 311 315 315 311 314 316 310 293 279 278 143 95 75 75 85 105 124 146 161 175 185 195 195 175 171 174 180 183 182 183 184 183 185 184 186 189 192
283 288 279 276 299 311 308 326 324 322 320 318 334 328 309 269 239 205 123 83 66 84 116 156 183 198 198 191 196 189 177 175 181 186 186 186 189 188 189 193 197 201 205 203
252 262 281 288 319 308 303 316 319 315 312 307 314 330 344 329 219 157 127 85 70 84 161 196 221 229 221 207 205 193 185 184 185 189 192 192 192 193 193 195 203 215 216 216
Height
1499 1500 1497 1496 1497 1496 1496 1497 1498 1498 1501 1502 1501 1501 1501 1504 1505 1505 1506 1508 1510 1512 1515 1517 1519 1521 1524 1527 1530 1533 1536 1538 1541 1543 1545 1548 1550 1552 1554 1556 1557 1559 1560 1561
1499 1498 1498 1499 1499 1499 1499 1499 1499 1501 1502 1502 1500 1499 1499 1500 1501 1502 1503 1504 1507 1509 1511 1513 1516 1518 1521 1524 1527 1530 1533 1535 1538 1540 1542 1545 1547 1549 1551 1552 1554 1555 1556 1557
1496 1499 1499 1499 1500 1500 1499 1499 1498 1500 1502 1501 1501 1498 1495 1495 1497 1499 1500 1501 1503 1505 1507 1510 1512 1514 1517 1520 1523 1526 1529 1532 1535 1537 1539 1541 1543 1545 1547 1548 1549 1551 1552 1553
1498 1499 1499 1498 1499 1499 1499 1500 1500 1500 1501 1499 1499 1493 1484 1486 1489 1492 1494 1496 1498 1501 1503 1506 1508 1511 1513 1516 1519 1523 1526 1528 1531 1533 1535 1537 1539 1541 1542 1544 1545 1546 1547 1548
1498 1498 1498 1498 1498 1500 1500 1501 1501 1500 1499 1499 1497 1494 1480 1483 1484 1483 1486 1490 1493 1496 1499 1502 1504 1507 1510 1512 1515 1519 1522 1524 1527 1529 1531 1533 1535 1537 1538 1540 1541 1542 1543 1544
1498 1499 1499 1498 1499 1501 1502 1503 1503 1501 1500 1501 1490 1492 1479 1475 1475 1476 1480 1484 1488 1491 1494 1497 1500 1502 1505 1508 1511 1514 1517 1520 1523 1525 1527 1529 1531 1533 1534 1535 1536 1537 1538 1538
1497 1497 1498 1499 1499 1502 1502 1502 1502 1502 1501 1491 1487 1488 1476 1469 1472 1474 1476 1479 1483 1486 1488 1491 1494 1497 1501 1504 1507 1509 1513 1515 1518 1520 1523 1525 1526 1528 1530 1531 1532 1532 1533 1533
1494 1494 1496 1497 1495 1496 1498 1497 1494 1490 1487 1483 1491 1483 1470 1470 1473 1474 1476 1477 1479 1481 1483 1486 1489 1492 1496 1499 1502 1505 1508 1511 1514 1516 1518 1520 1522 1523 1525 1526 1526 1527 1528 1528
1489 1491 1495 1496 1496 1496 1497 1496 1494 1492 1489 1486 1480 1476 1470 1469 1470 1472 1473 1474 1475 1476 1478 1481 1484 1487 1490 1494 1498 1501 1505 1507 1510 1512 1514 1515 1517 1518 1519 1520 1521 1522 1522 1523
1490 1492 1493 1495 1497 1497 1496 1493 1496 1494 1490 1481 1475 1472 1464 1464 1465 1467 1469 1470 1472 1473 1475 1477 1480 1482 1486 1490 1494 1497 1501 1503 1506 1508 1509 1511 1512 1514 1515 1515 1516 1517 1517 1518
1491 1491 1493 1494 1493 1491 1496 1496 1491 1488 1486 1480 1473 1465 1462 1464 1465 1466 1467 1468 1470 1471 1472 1474 1476 1479 1483 1487 1490 1494 1497 1499 1502 1504 1505 1507 1508 1509 1510 1511 1511 1512 1512 1513
1490 1488 1487 1489 1490 1489 1488 1487 1487 1487 1487 1482 1474 1467 1465 1466 1467 1467 1467 1468 1469 1470 1471 1473 1475 1478 1481 1485 1488 1491 1494 1496 1498 1500 1502 1503 1504 1505 1506 1506 1507 1508 1508 1508
1488 1488 1485 1486 1491 1491 1488 1485 1484 1484 1483 1481 1477 1468 1466 1467 1467 1467 1467 1468 1468 1469 1470 1472 1474 1477 1480 1483 1486 1489 1491 1493 1495 1497 1498 1499 1500 1501 1502 1502 1503 1503 1504 1504
1487 1484 1481 1475 1472 1478 1481 1482 1483 1485 1482 1476 1471 1466 1464 1464 1465 1466 1467 1467 1468 1469 1470 1471 1473 1476 1479 1481 1484 1486 1488 1491 1492 1494 1495 1496 1497 1498 1498 1499 1499 1499 1500 1500
1485 1482 1479 1476 1476 1477 1476 1476 1478 1479 1475 1473 1466 1466 1462 1463 1464 1465 1466 1466 1467 1467 1468 1470 1472 1474 1477 1479 1482 1484 1486 1488 1490 1491 1492 1493 1494 1494 1495 1495 1495 1496 1496 1497
1483 1481 1478 1475 1473 1474 1474 1472 1473 1473 1472 1470 1468 1464 1461 1463 1464 1464 1464 1464 1464 1465 1466 1468 1470 1472 1474 1477 1479 1481 1483 1485 1487 1488 1489 1490 1490 1491 1491 1492 1492 1492 1493 1493
1481 1479 1476 1469 1471 1471 1468 1465 1466 1466 1465 1465 1464 1460 1459 1460 1461 1460 1460 1461 1461 1461 1463 1464 1466 1468 1471 1474 1476 1479 1481 1482 1484 1485 1486 1487 1487 1488 1488 1489 1489 1489 1490 1490
1480 1477 1474 1470 1471 1469 1459 1460 1461 1461 1460 1461 1459 1457 1458 1458 1457 1457 1456 1456 1457 1457 1459 1461 1463 1465 1468 1471 1473 1476 1478 1479 1481 1482 1483 1483 1484 1484 1485 1485 1486 1486 1487 1488
1478 1476 1472 1469 1465 1460 1458 1459 1460 1460 1457 1457 1457 1456 1455 1455 1454 1452 1451 1451 1452 1454 1455 1457 1459 1462 1465 1467 1470 1472 1474 1475 1477 1478 1479 1480 1481 1481 1482 1482 1483 1484 1485 1486
1476 1475 1472 1468 1464 1460 1457 1458 1459 1460 1455 1455 1455 1454 1454 1454 1451 1449 1449 1448 1449 1450 1452 1454 1456 1459 1461 1464 1466 1468 1470 1472 1473 1474 1476 1477 1477 1478 1479 1480 1480 1481 1482 1483
1472 1472 1469 1465 1462 1456 1458 1459 1460 1459 1455 1455 1454 1453 1453 1452 1451 1450 1448 1447 1447 1448 1450 1452 1454 1456 1459 1461 1463 1465 1466 1468 1470 1471 1472 1473 1474 1475 1476 1477 1478 1479 1480 1481
1471 1467 1465 1463 1461 1461 1460 1459 1459 1458 1457 1455 1454 1453 1452 1451 1449 1448 1447 1447 1447 1448 1449 1450 1452 1454 1456 1458 1460 1461 1463 1465 1466 1467 1468 1469 1471 1471 1472 1474 1475 1476 1478 1479
1472 1471 1467 1465 1463 1462 1462 1461 1460 1459 1457 1456 1454 1452 1451 1450 1449 1448 1448 1448 1448 1448 1449 1450 1451 1452 1454 1455 1457 1458 1460 1461 1462 1463 1465 1466 1467 1468 1469 1471 1472 1473 1475 1476
1473 1473 1470 1466 1461 1461 1461 1460 1459 1457 1456 1454 1453 1452 1451 1450 1449 1449 1448 1448 1448 1448 1449 1449 1450 1451 1452 1453 1454 1456 1457 1458 1459 1460 1461 1462 1464 1465 1466 1467 1469 1470 1471 1473
1475 1473 1470 1466 1463 1461 1458 1458 1458 1456 1454 1453 1452 1451 1450 1449 1449 1448 1448 1448 1448 1448 1448 1449 1449 1450 1450 1451 1452 1453 1454 1454 1455 1457 1458 1459 1460 1461 1463 1464 1465 1467 1469 1470
1474 1472 1470 1465 1464 1463 1460 1458 1456 1454 1453 1452 1451 1450 1449 1448 1448 1448 1448 1447 1447 1447 1447 1447 1448 1448 1448 1449 1449 1450 1450 1451 1452 1453 1454 1455 1456 1458 1459 1460 1462 1463 1465 1467